Egegik, AK

7:04 PM AKDT on October 17, 2017 (GMT -0800)
Egegik

Weather History for PAII - December, 2012

Change the Weather History Date:

Wednesday, December 5, 2012

  Actual Average (PAKN) Record (PAKN)
Temperature  
Mean Temperature -4 °F -  
Max Temperature 0 °F 23 °F 49 °F (2002)
Min Temperature -7 °F 11 °F -24 °F (1975)
Degree Days  
Heating Degree Days 68    
Moisture  
Dew Point -9 °F    
Average Humidity 73    
Maximum Humidity 84    
Minimum Humidity 66    
Precipitation  
Precipitation 0.00 in - - ()
Sea Level Pressure  
Sea Level Pressure 29.71 in    
Wind  
Wind Speed 8 mph (North)    
Max Wind Speed 13 mph    
Max Gust Speed 18 mph    
Visibility 9 miles    
Events      
Averages and records for this station are not official NWS values.
T = Trace of Precipitation, MM = Missing Value Source: NWS Daily Summary

Daily Weather History Graph

Daily Weather History Graph

Search for Another Location

Airport or City:

Trip Planner

Search our weather history database for the weather conditions in past years. The results will help you decide how hot, cold, wet, or windy it might be!

Date:

Astronomy

Dec. 05, 2012 Rise Set
Actual Time 9:58 AM AKST 4:41 PM AKST
Civil Twilight 9:08 AM AKST 5:32 PM AKST
Nautical Twilight 8:15 AM AKST 6:24 PM AKST
Astronomical Twilight 7:27 AM AKST 7:12 PM AKST
Moon No Moon Rise 1:20 PM AKST (12/5)
Length of Visible Light 8h 24m
Length of Day
6h 43m
Waning Gibbous, 58% of the Moon is Illuminated
Dec 5
Waning Gibbous
Dec 6
Last Quarter
Dec 12
New
Dec 19
First Quarter
Dec 28
Full

Hourly Weather History & Observations

Time (AKST) Temp. Windchill Dew Point Humidity Pressure Visibility Wind Dir Wind Speed Gust Speed Precip Events Conditions
12:16 AM -4.0 °F -20.2 °F -11.2 °F 71% 29.68 in 10.0 mi North 9.2 mph - N/A   Clear
12:36 AM -4.0 °F -19.0 °F -11.2 °F 71% 29.68 in 10.0 mi North 8.1 mph 16.1 mph N/A   Clear
12:56 AM -5.8 °F -19.9 °F -9.4 °F 84% 29.68 in 10.0 mi NNE 6.9 mph - N/A   Clear
1:16 AM -5.8 °F -18.4 °F -9.4 °F 84% 29.69 in 9.0 mi North 5.8 mph - N/A   Partly Cloudy
1:36 AM -5.8 °F -16.7 °F -11.2 °F 77% 29.69 in 5.0 mi North 4.6 mph - N/A   Mostly Cloudy
1:56 AM -5.8 °F -21.2 °F -11.2 °F 77% 29.68 in 5.0 mi North 8.1 mph - N/A   Overcast
2:16 AM -5.8 °F -22.4 °F -11.2 °F 77% 29.68 in 10.0 mi North 9.2 mph - N/A   Scattered Clouds
2:36 AM -5.8 °F -19.9 °F -13.0 °F 71% 29.68 in 10.0 mi North 6.9 mph - N/A   Clear
2:56 AM -5.8 °F -21.2 °F -13.0 °F 71% 29.68 in 10.0 mi NNE 8.1 mph - N/A   Clear
3:16 AM -7.6 °F -22.1 °F -13.0 °F 77% 29.68 in 10.0 mi North 6.9 mph - N/A   Clear
3:36 AM -5.8 °F -19.9 °F -13.0 °F 71% 29.68 in 10.0 mi North 6.9 mph - N/A   Clear
3:56 AM -7.6 °F -18.8 °F -11.2 °F 84% 29.68 in 10.0 mi North 4.6 mph - N/A   Clear
5:56 AM -5.8 °F -14.5 °F -9.4 °F 84% 29.67 in 10.0 mi North 3.5 mph - N/A   Overcast
6:16 AM -5.8 °F -16.7 °F -11.2 °F 77% 29.67 in 10.0 mi North 4.6 mph - N/A   Overcast
6:36 AM -4.0 °F -16.3 °F -11.2 °F 71% 29.67 in 10.0 mi North 5.8 mph - N/A   Overcast
6:56 AM -4.0 °F -20.2 °F -9.4 °F 78% 29.67 in 10.0 mi North 9.2 mph - N/A   Mostly Cloudy
7:16 AM -2.2 °F -16.8 °F -11.2 °F 66% 29.67 in 10.0 mi North 8.1 mph - N/A   Overcast
7:36 AM -2.2 °F -18.9 °F -11.2 °F 66% 29.68 in 10.0 mi North 10.4 mph 17.3 mph N/A   Overcast
7:56 AM -2.2 °F -18.0 °F -9.4 °F 71% 29.69 in 5.0 mi North 9.2 mph - N/A   Overcast
8:16 AM -2.2 °F -20.7 °F -11.2 °F 66% 29.68 in 8.0 mi North 12.7 mph 16.1 mph N/A   Overcast
8:36 AM -2.2 °F -15.6 °F -9.4 °F 71% 29.68 in 10.0 mi North 6.9 mph - N/A   Overcast
8:56 AM -2.2 °F -19.9 °F -9.4 °F 71% 29.68 in 4.0 mi North 11.5 mph - N/A   Overcast
9:16 AM -2.2 °F -19.9 °F -7.6 °F 78% 29.69 in 6.0 mi North 11.5 mph - N/A   Overcast
9:36 AM -2.2 °F -19.9 °F -9.4 °F 71% 29.69 in 8.0 mi North 11.5 mph - N/A   Overcast
9:56 AM -2.2 °F -18.9 °F -9.4 °F 71% 29.69 in 7.0 mi North 10.4 mph - N/A   Mostly Cloudy
10:16 AM -2.2 °F -19.9 °F -9.4 °F 71% 29.69 in 10.0 mi North 11.5 mph - N/A   Overcast
10:36 AM -2.2 °F -18.0 °F -9.4 °F 71% 29.70 in 10.0 mi North 9.2 mph - N/A   Overcast
10:56 AM -2.2 °F -18.0 °F -9.4 °F 71% 29.70 in 10.0 mi North 9.2 mph - N/A   Overcast
11:16 AM -2.2 °F -18.9 °F -7.6 °F 78% 29.70 in 6.0 mi North 10.4 mph - N/A   Mostly Cloudy
11:36 AM -2.2 °F -19.9 °F -7.6 °F 78% 29.70 in 10.0 mi North 11.5 mph - N/A   Scattered Clouds
11:56 AM -0.4 °F -17.6 °F -7.6 °F 72% 29.70 in 10.0 mi North 11.5 mph - N/A   Mostly Cloudy
12:16 PM -0.4 °F -17.6 °F -9.4 °F 66% 29.70 in 10.0 mi North 11.5 mph - N/A   Partly Cloudy
12:36 PM -0.4 °F -17.6 °F -9.4 °F 66% 29.70 in 10.0 mi North 11.5 mph 16.1 mph N/A   Mostly Cloudy
12:56 PM -0.4 °F -18.4 °F -9.4 °F 66% 29.70 in 10.0 mi North 12.7 mph - N/A   Mostly Cloudy
1:16 PM -0.4 °F -18.4 °F -9.4 °F 66% 29.70 in 10.0 mi North 12.7 mph 18.4 mph N/A   Partly Cloudy
1:36 PM -0.4 °F -17.6 °F -9.4 °F 66% 29.71 in 10.0 mi North 11.5 mph - N/A   Partly Cloudy
1:56 PM -0.4 °F -16.7 °F -9.4 °F 66% 29.71 in 10.0 mi North 10.4 mph - N/A   Scattered Clouds
2:16 PM -0.4 °F -15.7 °F -7.6 °F 72% 29.71 in 10.0 mi North 9.2 mph - N/A   Partly Cloudy
2:36 PM -0.4 °F -16.7 °F -7.6 °F 72% 29.71 in 10.0 mi North 10.4 mph - N/A   Clear
2:56 PM -0.4 °F -18.4 °F -7.6 °F 72% 29.72 in 10.0 mi North 12.7 mph - N/A   Clear
3:16 PM -0.4 °F -16.7 °F -7.6 °F 72% 29.72 in 10.0 mi North 10.4 mph - N/A   Clear
3:36 PM -0.4 °F -14.7 °F -9.4 °F 66% 29.72 in 10.0 mi North 8.1 mph - N/A   Clear
3:56 PM -0.4 °F -14.7 °F -7.6 °F 72% 29.72 in 10.0 mi North 8.1 mph - N/A   Mostly Cloudy
4:16 PM -0.4 °F -15.7 °F -7.6 °F 72% 29.72 in 10.0 mi North 9.2 mph - N/A   Partly Cloudy
4:36 PM -0.4 °F -14.7 °F -7.6 °F 72% 29.72 in 10.0 mi North 8.1 mph - N/A   Clear
4:56 PM -0.4 °F -12.0 °F -7.6 °F 72% 29.72 in 10.0 mi NNW 5.8 mph - N/A   Clear
5:16 PM -0.4 °F -13.4 °F -7.6 °F 72% 29.73 in 10.0 mi North 6.9 mph - N/A   Clear
5:36 PM -0.4 °F -12.0 °F -7.6 °F 72% 29.73 in 10.0 mi North 5.8 mph - N/A   Clear
5:56 PM -2.2 °F -15.6 °F -9.4 °F 71% 29.73 in 10.0 mi NNW 6.9 mph - N/A   Clear
6:16 PM -2.2 °F -15.6 °F -7.6 °F 78% 29.74 in 10.0 mi NNW 6.9 mph - N/A   Clear
6:36 PM -2.2 °F -14.2 °F -7.6 °F 78% 29.73 in 10.0 mi NNW 5.8 mph - N/A   Clear
6:56 PM -0.4 °F -12.0 °F -7.6 °F 72% 29.73 in 10.0 mi NNW 5.8 mph - N/A   Clear
7:16 PM -2.2 °F -15.6 °F -9.4 °F 71% 29.74 in 10.0 mi North 6.9 mph - N/A   Clear
7:36 PM -2.2 °F -12.5 °F -7.6 °F 78% 29.74 in 10.0 mi NNW 4.6 mph - N/A   Clear
7:56 PM -2.2 °F -15.6 °F -7.6 °F 78% 29.75 in 10.0 mi NNW 6.9 mph - N/A   Clear
8:16 PM -2.2 °F -14.2 °F -7.6 °F 78% 29.75 in 10.0 mi North 5.8 mph - N/A   Clear
8:36 PM -2.2 °F -12.5 °F -7.6 °F 78% 29.76 in 10.0 mi North 4.6 mph - N/A   Clear
8:56 PM -2.2 °F -12.5 °F -7.6 °F 78% 29.77 in 10.0 mi NW 4.6 mph - N/A   Clear
9:16 PM -2.2 °F -16.8 °F -9.4 °F 71% 29.76 in 10.0 mi NNW 8.1 mph - N/A   Clear
9:36 PM -2.2 °F -15.6 °F -7.6 °F 78% 29.77 in 10.0 mi North 6.9 mph - N/A   Clear
9:56 PM -2.2 °F -15.6 °F -9.4 °F 71% 29.77 in 10.0 mi North 6.9 mph - N/A   Clear
10:16 PM -2.2 °F -14.2 °F -9.4 °F 71% 29.78 in 10.0 mi NNW 5.8 mph - N/A   Clear
10:36 PM -2.2 °F -12.5 °F -9.4 °F 71% 29.78 in 10.0 mi NNW 4.6 mph - N/A   Clear
10:56 PM -2.2 °F -14.2 °F -7.6 °F 78% 29.78 in 10.0 mi North 5.8 mph - N/A   Clear
11:16 PM -2.2 °F -12.5 °F -9.4 °F 71% 29.78 in 10.0 mi NNW 4.6 mph - N/A   Clear
11:36 PM -2.2 °F -14.2 °F -9.4 °F 71% 29.79 in 10.0 mi North 5.8 mph - N/A   Clear
11:56 PM -2.2 °F -10.4 °F -7.6 °F 78% 29.80 in 10.0 mi North 3.5 mph - N/A   Clear